FW7048 Weather Reports


time (UTC)temp
C
wind
direction
speed
KPH
gust
KPH
rain 1hr
cm
rain 24hr
cm
rain mn
cm
humidity
%
barometer
mb
20260505034552 15 5 1.6 6.4 0.00 0.00 0.00 45 1009.4
20260505033053 15 5 0.0 4.8 0.00 0.00 0.00 44 1009.2
20260505031559 15 0 0.0 1.6 0.00 0.00 0.00 43 1008.9
20260505030055 16 0 0.0 3.2 0.00 0.00 0.00 40 1008.8
20260505024555 16 0 0.0 1.6 0.00 0.00 0.00 38 1008.6
20260505023054 17 0 1.6 8.0 0.00 0.00 0.00 36 1008.5
20260505021555 17 0 0.0 4.8 0.00 0.00 0.00 35 1008.5
20260505020051 17 5 1.6 6.4 0.00 0.00 0.00 35 1008.4
20260505014605 17 0 1.6 9.7 0.00 0.00 0.00 36 1008.4
20260505013053 17 5 4.8 16.1 0.00 0.00 0.00 35 1008.4
20260505011605 17 5 8.0 22.5 0.00 0.00 0.00 35 1008.3
20260505010051 17 5 11.3 25.7 0.00 0.00 0.00 37 1008.3
20260505004555 17 5 9.7 29.0 0.00 0.00 0.00 38 1008.7
20260505003055 16 5 12.9 29.0 0.00 0.00 0.00 39 1008.6
20260505001604 17 5 9.7 25.7 0.00 0.00 0.00 38 1008.8
20260505000136 16 5 14.5 32.2 0.00 0.00 0.00 41 1009.1
20260504234611 17 5 14.5 40.2 0.00 0.00 0.00 43 1009.1
20260504233104 16 5 20.9 40.2 0.00 0.00 0.00 45 1009.4
20260504231553 17 5 14.5 33.8 0.00 0.00 0.00 39 1009.4
20260504230053 17 5 4.8 17.7 0.00 0.00 0.00 38 1009.5
20260504224607 17 5 6.4 16.1 0.00 0.00 0.00 38 1009.5
20260504223056 17 5 4.8 20.9 0.00 0.00 0.00 39 1009.4
20260504221556 20 5 4.8 16.1 0.00 0.00 0.00 31 1009.4
20260504220059 20 5 1.6 14.5 0.00 0.00 0.00 26 1009.1
20260504214553 20 5 8.0 19.3 0.00 0.00 0.00 30 1009.1
20260504213125 20 5 9.7 19.3 0.00 0.00 0.00 28 1009.2
20260504211559 21 5 9.7 22.5 0.00 0.00 0.00 29 1009.4
20260504210058 21 5 16.1 27.4 0.00 0.00 0.00 27 1009.4
20260504204556 21 5 8.0 22.5 0.00 0.00 0.00 28 1009.4
20260504203109 21 5 4.8 16.1 0.00 0.00 0.00 30 1009.5
20260504201552 21 5 9.7 20.9 0.00 0.00 0.00 30 1009.9
20260504200054 21 5 3.2 16.1 0.00 0.00 0.00 29 1009.9
20260504194604 22 5 3.2 12.9 0.00 0.00 0.00 29 1009.9
20260504193108 20 5 8.0 16.1 0.00 0.00 0.00 31 1010.3
20260504191555 20 5 6.4 17.7 0.00 0.00 0.00 29 1010.4
20260504190114 20 5 4.8 14.5 0.00 0.00 0.00 33 1010.6
20260504184606 20 5 3.2 16.1 0.00 0.00 0.00 28 1010.8
20260504183052 21 5 4.8 14.5 0.00 0.00 0.00 28 1010.9
20260504181555 21 5 3.2 8.0 0.00 0.00 0.00 31 1011.1
20260504180055 20 5 4.8 14.5 0.00 0.00 0.00 31 1011.3
20260504174602 20 5 4.8 16.1 0.00 0.00 0.00 32 1011.3
20260504173106 19 5 3.2 9.7 0.00 0.00 0.00 34 1011.4
20260504171555 19 5 3.2 12.9 0.00 0.00 0.00 34 1011.5
20260504140109 14 5 3.2 8.0 0.00 0.00 0.00 44 1011.9
20260504110117 14 0 0.0 8.0 0.00 0.00 0.00 36 1011.9
20260504090119 14 5 1.6 12.9 0.00 0.00 0.00 35 1011.4
20260504081556 16 5 1.6 9.7 0.00 0.00 0.00 25 1011.4
20260504050107 14 0 0.0 1.6 0.00 0.00 0.00 29 1011.8
20260504044603 15 5 0.0 1.6 0.00 0.00 0.00 30 1012.0
20260504043056 15 0 0.0 1.6 0.00 0.00 0.00 29 1012.0
20260504041600 16 5 1.6 6.4 0.00 0.00 0.00 27 1012.0
20260504040107 17 5 4.8 16.1 0.00 0.00 0.00 22 1011.9